Regional Weather Roundup
Issued by NWS Albany, NY

Home | Current Version | Previous Version | Text Only | Print | Product List | Glossary Off
Versions: 1 2 3 4 5 6 7 8 9 10 11 12 13 14 15 16 17 18 19 20 21 22 23 24 25 26 27

000
ASUS41 KALY 190910
RWRALY

NEW YORK STATE HOURLY WEATHER ROUNDUP
NATIONAL WEATHER SERVICE ALBANY NY
500 AM EDT SAT APR 19 2014

NOTE: "FAIR" INDICATES FEW OR NO CLOUDS BELOW 12,000 FEET WITH NO
SIGNIFICANT WEATHER AND/OR NO OBSTRUCTIONS TO VISIBILITY.

NYZ032-033-038>043-046>054-057>066-NYZ062>081-191000-
EAST


CITY           SKY/WX    TMP DP  RH WIND       PRES   REMARKS
ALBANY         PTCLDY    36  28  73 S5        30.22S WCI  32
GLENS FALLS    PTCLDY    38  28  67 S6        30.17R WCI  33
POUGHKEEPSIE   PTCLDY    41  31  67 S3        30.20S
NEWBURGH       PTCLDY    43  32  65 SW7       30.22S
MONTGOMERY     PTCLDY    37  30  75 SW6       30.20F WCI  32
WHITE PLAINS   MOCLDY    36  31  82 CALM      30.20F
ISLIP          MOCLDY    38  34  85 SW5       30.21F WCI  34
NEW YORK CITY  MOCLDY    43  33  68 SW7       30.23S
CENTRAL PARK   MOCLDY    43  34  70 W3        30.25S
$$

NYZ005>009-017-018-044>046-055-056-191000-
CENTRAL


CITY           SKY/WX    TMP DP  RH WIND       PRES   REMARKS
FULTON         CLEAR     36  30  79 W9        30.28R WCI  29
SYRACUSE       PTCLDY    39  32  76 W9        30.28R WCI  33
ROME           PTCLDY    36  34  92 W7        30.27R WCI  30
ELMIRA         CLOUDY    36  32  85 CALM      30.27R
BINGHAMTON     CLEAR     40  36  86 NW7       30.23R
MONTICELLO     PTCLDY    34  30  86 W7        30.22R WCI  28
$$

NYZ026>034-041>043-191000-
NORTH


CITY           SKY/WX    TMP DP  RH WIND       PRES   REMARKS
WATERTOWN      CLOUDY    38  31  76 W9        30.26R WCI  31
FORT DRUM      NOT AVBL
MASSENA        CLOUDY    42  39  89 W8        30.21S
SARANAC LAKE   CLOUDY    37  33  85 W9        30.15R WCI  30
PLATTSBURGH    CLOUDY    41  32  70 CALM      30.15R
$$

NYZ001>004-010>016-019>021-191000-
WEST


CITY           SKY/WX    TMP DP  RH WIND       PRES   REMARKS
NIAGARA FALLS  CLEAR     33  27  78 NW7       30.34  WCI  27
BUFFALO        CLEAR     35  29  78 NW7       30.33R WCI  29
DUNKIRK        CLEAR     34  27  75 NW3       30.35R
JAMESTOWN      CLEAR     36  28  75 N8        30.30S WCI  29
WELLSVILLE     CLEAR     35  29  78 NW7       30.27R WCI  29
ROCHESTER      PTCLDY    36  28  73 W6        30.32R WCI  31
PENN YAN       CLEAR     38  32  79 CALM      30.28R
$$

             KEY
       WCI = WIND CHILL INDEX
       VSB = VISIBILITY
       HX  = HEAT INDEX
$$



USA.gov is the U.S. government's official web portal to all federal, state and local government web resources and services.